Regional Weather Roundup
Issued by NWS Cleveland, OH

Home | Current Version | Previous Version | Graphics & Text | Print | Product List | Glossary On
Versions: 1 2 3 4 5 6 7 8 9 10 11 12 13 14 15 16 17 18 19 20 21 22 23 24 25 26 27 28 29 30 31 32 33 34 35 36 37 38 39 40 41 42 43 44 45 46 47 48 49 50
000
ASUS41 KCLE 031800
RWRCLE
OHIO REGIONAL WEATHER ROUNDUP
NATIONAL WEATHER SERVICE WILMINGTON, OH
200 PM EDT WED JUN 03 2015

NOTE: "FAIR" INDICATES FEW OR NO CLOUDS BELOW 12,000 FEET WITH NO
SIGNIFICANT WEATHER AND/OR OBSTRUCTIONS TO VISIBILITY.

OHZ001>008-015>018-024>027-034-035-043-044-031900-
   NORTHWEST OHIO

CITY           SKY/WX    TMP DP  RH WIND       PRES   REMARKS
DEFIANCE       CLOUDY    71  55  56 SE8       30.09F
FINDLAY        PTSUNNY   72  55  55 E8        30.08F
TOLEDO EXPRESS SUNNY     72  50  45 E8        30.09F
TOLEDO EXEC    SUNNY     71  50  47 E12       30.11S
LIMA           CLOUDY    69  58  67 VRB5      30.09S
$$

OHZ009>014-019>023-028>033-038-089-031900-
   NORTHEAST OHIO

CITY           SKY/WX    TMP DP  RH WIND       PRES   REMARKS
CLE-HOPKINS    MOSUNNY   68  52  56 N10       30.11F
CLE-LAKEFRONT  SUNNY     62  53  72 NE17      30.09F
CUY CO. ARPT   SUNNY     73  54  49 SE9       30.10F
LORAIN-ELYRIA  SUNNY     69  55  60 NE9       30.10F
ASHTABULA      SUNNY     71  55  56 SE12      30.13F
AKRON-CANTON   PTSUNNY   70  56  61 E8        30.10F
WOOSTER        NOT AVBL
MANSFIELD      PTSUNNY   69  58  67 SE10      30.10F
YOUNGSTOWN     CLOUDY    69  55  60 SE14      30.12F
$$

OHZ042-051>053-060>062-070>072-077>081-031900-
  SOUTHWEST OHIO

CITY           SKY/WX    TMP DP  RH WIND       PRES   REMARKS
CINC-COVINGTON CLOUDY    67  55  65 CALM      30.07S
CINC-LUNKEN    CLOUDY    69  57  65 CALM      30.07S
HAMILTON       CLOUDY    69  57  65 CALM      30.08S
DAYTON         NOT AVBL
WRIGHT-PAT AFB PTSUNNY   70  58  65 E6        30.07S
DAYTON GENERAL CLOUDY    68  58  70 E5        30.07S
WILMINGTON     CLOUDY    66  56  70 VRB5      30.07F
$$

OHZ036-037-039>041-045>050-054>059-063>069-073>076-082>088-031900-
  CENTRAL AND SOUTHEAST OHIO

CITY           SKY/WX    TMP DP  RH WIND       PRES   REMARKS
COLUMBUS       CLOUDY    69  59  70 NE5       30.07F
OSU AIRPORT    CLOUDY    69  58  67 E6        30.08S
BOLTON FIELD   CLOUDY    70  59  68 SE6       30.07F
RICKENBACK AFB NOT AVBL
NEWARK         CLOUDY    71  59  65 VRB6      30.07F
MARION         CLOUDY    68  56  65 MISG      30.09F
LANCASTER      CLOUDY    70  60  70 E6        30.08S
ZANESVILLE     CLOUDY    71  58  63 SE5       30.07F
NEW PHILLY     PTSUNNY   74  57  55 E8        30.09F
$$


USA.gov is the U.S. government's official web portal to all federal, state and local government web resources and services.